When you browse on this site, cookies collect data to enhance your experience and personalize the content and advertising you see.
Visit our Privacy Policy to learn more. By continuing to use the site, you agree to this use of cookies and data.
  • In Österreich
  • Länderverzeichnis
  • Für 7 Tage
  • Wassertemperatur
  • Wetterkarte
  • News
  • Widgets
  • user-avatar
    Anmelden

    Stündliche Wetter Krasnoglinnyy

    Heute, 24 Januar, Freitag

    Zeit Temperatur Niederschläge Wind Luftdruck Luftfeuchtigkeit
    00:00 -8°C° 0.3 mm 1 m/S 729 mmHg 96%
    01:00 -8°C° 0.3 mm 2 m/S 729 mmHg 96%
    02:00 -10°C° 0.1 mm 2 m/S 730 mmHg 96%
    03:00 -13°C° 0.1 mm 3 m/S 730 mmHg 96%
    04:00 -14°C° 0.1 mm 3 m/S 731 mmHg 95%
    05:00 -15°C° 0 mm 3 m/S 731 mmHg 96%
    06:00 -17°C° 0 mm 3 m/S 732 mmHg 97%
    07:00 -17°C° 0 mm 2 m/S 732 mmHg 97%
    08:00 -17°C° 0 mm 2 m/S 733 mmHg 97%
    09:00 -18°C° 0 mm 2 m/S 733 mmHg 97%
    10:00 -18°C° 0 mm 2 m/S 734 mmHg 97%
    11:00 -17°C° 0 mm 2 m/S 735 mmHg 96%
    12:00 -16°C° 0 mm 2 m/S 735 mmHg 96%
    13:00 -15°C° 0 mm 2 m/S 736 mmHg 96%
    14:00 -15°C° 0 mm 2 m/S 736 mmHg 96%
    15:00 -17°C° 0 mm 3 m/S 736 mmHg 96%
    16:00 -17°C° 0 mm 3 m/S 737 mmHg 97%
    17:00 -18°C° 0 mm 3 m/S 737 mmHg 97%
    18:00 -18°C° 0 mm 3 m/S 737 mmHg 98%
    19:00 -19°C° 0 mm 3 m/S 737 mmHg 98%
    20:00 -19°C° 0 mm 3 m/S 737 mmHg 98%
    21:00 -22°C° 0 mm 4 m/S 737 mmHg 97%
    22:00 -22°C° 0 mm 4 m/S 737 mmHg 97%
    23:00 -22°C° 0 mm 4 m/S 737 mmHg 97%

    Morgen, 25 Januar, Samstag

    Zeit Temperatur Niederschläge Wind Luftdruck Luftfeuchtigkeit
    00:00 -22°C° 0 mm 5 m/S 737 mmHg 97%
    01:00 -22°C° 0 mm 5 m/S 736 mmHg 96%
    02:00 -22°C° 0 mm 6 m/S 736 mmHg 96%
    03:00 -22°C° 0 mm 6 m/S 735 mmHg 95%
    04:00 -21°C° 0 mm 7 m/S 735 mmHg 95%
    05:00 -20°C° 0.1 mm 7 m/S 734 mmHg 94%
    06:00 -19°C° 0.1 mm 8 m/S 734 mmHg 94%
    07:00 -18°C° 0.1 mm 8 m/S 733 mmHg 93%
    08:00 -17°C° 0.4 mm 9 m/S 732 mmHg 93%
    09:00 -15°C° 0.4 mm 9 m/S 732 mmHg 93%
    10:00 -14°C° 0.4 mm 10 m/S 731 mmHg 92%
    11:00 -13°C° 0.3 mm 10 m/S 730 mmHg 93%
    12:00 -12°C° 0.3 mm 10 m/S 730 mmHg 93%
    13:00 -10°C° 0.3 mm 10 m/S 729 mmHg 93%
    14:00 -9°C° 0.2 mm 9 m/S 729 mmHg 93%
    15:00 -9°C° 0.2 mm 9 m/S 729 mmHg 93%
    16:00 -7°C° 0.2 mm 8 m/S 729 mmHg 93%
    17:00 -7°C° 0 mm 7 m/S 729 mmHg 93%
    18:00 -6°C° 0 mm 6 m/S 729 mmHg 93%
    19:00 -6°C° 0 mm 5 m/S 729 mmHg 93%
    20:00 -5°C° 0.2 mm 6 m/S 728 mmHg 94%
    21:00 -5°C° 0.2 mm 6 m/S 728 mmHg 95%
    22:00 -4°C° 0.2 mm 7 m/S 727 mmHg 96%
    23:00 -5°C° 0.6 mm 8 m/S 726 mmHg 96%

    übermorgen, 26 Januar, Sonntag

    Zeit Temperatur Niederschläge Wind Luftdruck Luftfeuchtigkeit
    00:00 -4°C° 0.6 mm 8 m/S 726 mmHg 96%
    01:00 -4°C° 0.6 mm 9 m/S 725 mmHg 96%
    02:00 -4°C° 0.4 mm 8 m/S 724 mmHg 96%
    03:00 -5°C° 0.4 mm 8 m/S 723 mmHg 95%
    04:00 -4°C° 0.4 mm 7 m/S 723 mmHg 95%
    05:00 -4°C° 0.6 mm 7 m/S 722 mmHg 94%
    06:00 -5°C° 0.6 mm 8 m/S 722 mmHg 94%
    07:00 -5°C° 0.6 mm 8 m/S 721 mmHg 93%
    08:00 -6°C° 0.2 mm 7 m/S 722 mmHg 93%
    09:00 -7°C° 0.2 mm 7 m/S 722 mmHg 92%
    10:00 -8°C° 0.2 mm 7 m/S 722 mmHg 91%
    11:00 -8°C° 0 mm 7 m/S 722 mmHg 91%
    12:00 -9°C° 0 mm 7 m/S 723 mmHg 91%
    13:00 -9°C° 0 mm 7 m/S 723 mmHg 91%
    14:00 -9°C° 0.2 mm 6 m/S 724 mmHg 92%
    15:00 -9°C° 0.2 mm 6 m/S 725 mmHg 93%
    16:00 -8°C° 0.2 mm 6 m/S 726 mmHg 94%
    17:00 -9°C° 0.1 mm 6 m/S 727 mmHg 93%
    18:00 -11°C° 0.1 mm 7 m/S 728 mmHg 93%
    19:00 -12°C° 0.1 mm 7 m/S 729 mmHg 92%
    20:00 -13°C° 0 mm 7 m/S 730 mmHg 91%
    21:00 -14°C° 0 mm 7 m/S 731 mmHg 90%
    22:00 -15°C° 0 mm 6 m/S 732 mmHg 89%
    23:00 -16°C° 0 mm 6 m/S 733 mmHg 91%

    27 Januar, Montag

    Zeit Temperatur Niederschläge Wind Luftdruck Luftfeuchtigkeit
    00:00 -17°C° 0 mm 6 m/S 733 mmHg 92%
    01:00 -17°C° 0 mm 5 m/S 734 mmHg 93%
    02:00 -17°C° 0 mm 5 m/S 735 mmHg 93%
    03:00 -17°C° 0 mm 6 m/S 735 mmHg 93%
    04:00 -17°C° 0 mm 6 m/S 736 mmHg 93%
    05:00 -17°C° 0 mm 6 m/S 736 mmHg 94%
    06:00 -18°C° 0 mm 5 m/S 736 mmHg 94%
    07:00 -19°C° 0 mm 5 m/S 737 mmHg 95%
    08:00 -17°C° 0 mm 4 m/S 737 mmHg 96%
    09:00 -17°C° 0 mm 4 m/S 738 mmHg 96%
    10:00 -17°C° 0 mm 4 m/S 738 mmHg 97%
    11:00 -15°C° 0 mm 4 m/S 738 mmHg 95%
    12:00 -14°C° 0 mm 4 m/S 738 mmHg 94%
    13:00 -12°C° 0 mm 4 m/S 738 mmHg 93%
    14:00 -12°C° 0.2 mm 5 m/S 737 mmHg 93%
    15:00 -12°C° 0.2 mm 6 m/S 737 mmHg 93%
    16:00 -12°C° 0.2 mm 7 m/S 737 mmHg 94%
    17:00 -12°C° 0.1 mm 7 m/S 737 mmHg 93%
    18:00 -12°C° 0.1 mm 7 m/S 736 mmHg 93%
    19:00 -12°C° 0.1 mm 7 m/S 736 mmHg 93%
    20:00 -11°C° 0.1 mm 7 m/S 737 mmHg 93%
    21:00 -11°C° 0.1 mm 7 m/S 738 mmHg 93%
    22:00 -9°C° 0.1 mm 6 m/S 738 mmHg 93%
    23:00 -12°C° 0 mm 5 m/S 739 mmHg 92%

    28 Januar, Dienstag

    Zeit Temperatur Niederschläge Wind Luftdruck Luftfeuchtigkeit
    00:00 -15°C° 0 mm 4 m/S 740 mmHg 91%
    01:00 -18°C° 0 mm 3 m/S 740 mmHg 90%
    02:00 -18°C° 0 mm 2 m/S 741 mmHg 91%
    03:00 -20°C° 0 mm 2 m/S 742 mmHg 93%
    04:00 -19°C° 0 mm 1 m/S 742 mmHg 94%
    05:00 -20°C° 0 mm 1 m/S 743 mmHg 94%
    06:00 -20°C° 0 mm 1 m/S 744 mmHg 94%
    07:00 -21°C° 0 mm 1 m/S 744 mmHg 94%
    08:00 -21°C° 0 mm 1 m/S 745 mmHg 93%
    09:00 -21°C° 0 mm 1 m/S 745 mmHg 92%
    10:00 -20°C° 0 mm 1 m/S 746 mmHg 91%
    11:00 -19°C° 0 mm 1 m/S 746 mmHg 90%
    12:00 -18°C° 0 mm 1 m/S 747 mmHg 88%
    13:00 -17°C° 0 mm 1 m/S 747 mmHg 87%
    14:00 -17°C° 0 mm 1 m/S 747 mmHg 87%
    15:00 -17°C° 0 mm 1 m/S 747 mmHg 87%
    16:00 -18°C° 0 mm 2 m/S 747 mmHg 87%
    17:00 -18°C° 0 mm 2 m/S 748 mmHg 86%
    18:00 -18°C° 0 mm 2 m/S 748 mmHg 86%
    19:00 -18°C° 0 mm 2 m/S 748 mmHg 85%
    20:00 -18°C° 0 mm 2 m/S 748 mmHg 85%
    21:00 -19°C° 0 mm 3 m/S 748 mmHg 85%
    22:00 -19°C° 0 mm 3 m/S 748 mmHg 85%
    23:00 -19°C° 0 mm 3 m/S 748 mmHg 85%

    29 Januar, Mittwoch

    Zeit Temperatur Niederschläge Wind Luftdruck Luftfeuchtigkeit
    00:00 -19°C° 0 mm 3 m/S 749 mmHg 85%
    01:00 -19°C° 0 mm 3 m/S 749 mmHg 85%
    02:00 -19°C° 0 mm 3 m/S 748 mmHg 86%
    03:00 -19°C° 0 mm 3 m/S 748 mmHg 88%
    04:00 -19°C° 0 mm 3 m/S 748 mmHg 89%
    05:00 -18°C° 0 mm 3 m/S 748 mmHg 90%
    06:00 -18°C° 0 mm 3 m/S 748 mmHg 90%
    07:00 -17°C° 0 mm 3 m/S 748 mmHg 91%
    08:00 -17°C° 0 mm 3 m/S 749 mmHg 92%
    09:00 -16°C° 0 mm 3 m/S 749 mmHg 93%
    10:00 -16°C° 0 mm 3 m/S 749 mmHg 94%
    11:00 -15°C° 0 mm 3 m/S 749 mmHg 93%
    12:00 -14°C° 0 mm 3 m/S 749 mmHg 93%
    13:00 -13°C° 0 mm 3 m/S 749 mmHg 93%
    14:00 -13°C° 0 mm 3 m/S 749 mmHg 94%
    15:00 -13°C° 0 mm 3 m/S 749 mmHg 94%
    16:00 -13°C° 0 mm 3 m/S 748 mmHg 94%
    17:00 -12°C° 0 mm 2 m/S 749 mmHg 95%
    18:00 -13°C° 0 mm 2 m/S 749 mmHg 95%
    19:00 -13°C° 0 mm 2 m/S 749 mmHg 95%
    20:00 -13°C° 0 mm 2 m/S 749 mmHg 96%
    21:00 -12°C° 0 mm 2 m/S 749 mmHg 96%
    22:00 -12°C° 0 mm 2 m/S 749 mmHg 96%
    23:00 -12°C° 0 mm 3 m/S 749 mmHg 96%
    Mehr zeigen